SB KEPS @ AMSAT $ORB08220.N 2Line Orbital Elements 08220.AMSAT
HR AMSAT ORBITAL ELEMENTS FOR AMATEUR SATELLITES IN NASA FORMAT FROM WA5QGD FORT WORTH,TX August 7, 2008 Send Subscribe/unsubscribe to KEPS at http://www.amsat.org/mailman/listinfo/keps BID: ORB08220.N
DECODE 2-LINE ELSETS WITH THE FOLLOWING KEY: 1 AAAAAU 00 0 0 BBBBB.BBBBBBBB .CCCCCCCC 00000-0 00000-0 0 DDDZ 2 AAAAA EEE.EEEE FFF.FFFF GGGGGGG HHH.HHHH III.IIII JJ.JJJJJJJJKKKKKZ KEY: A-CATALOGNUM B-EPOCHTIME C-DECAY D-ELSETNUM E-INCLINATION F-RAAN G-ECCENTRICITY H-ARGPERIGEE I-MNANOM J-MNMOTION K-ORBITNUM Z-CHECKSUM
TO ALL RADIO AMATEURS BT
AO-07 1 07530U 74089B 08219.65149021 -.00000027 00000-0 10000-3 0 02460 2 07530 101.4627 249.4551 0011933 162.3089 197.8404 12.53573855543306 AO-10 1 14129U 83058B 08218.25999605 -.00000001 00000-0 10000-3 0 05414 2 14129 026.0156 202.0853 5971868 146.0296 273.0677 02.05867875189111 UO-11 1 14781U 84021B 08219.90384498 -.00000151 00000-0 -12807-4 0 07394 2 14781 098.1506 254.6871 0008065 270.8770 089.1501 14.79656141311356 RS-15 1 23439U 94085A 08219.92281723 -.00000039 00000-0 10000-3 0 01686 2 23439 064.8154 053.0042 0147119 113.0595 248.5917 11.27552735560681 FO-29 1 24278U 96046B 08219.92807608 -.00000008 00000-0 25174-4 0 08483 2 24278 098.5822 129.5725 0351363 084.2436 279.8646 13.52938885591254 SO-33 1 25509U 98061B 08219.58775385 -.00000014 00000-0 -14072-4 0 2586 2 25509 031.4295 031.3707 0354301 107.9422 256.0117 14.28218548510820 AO-40 1 26609U 00072B 08218.96565505 -.00000272 00000-0 10000-3 0 999 2 26609 007.6627 068.1686 7926541 109.0958 344.1528 01.25584502 35663 VO-52 1 28650U 05017B 08219.92716010 -.00000274 00000-0 -28123-4 0 00008 2 28650 097.7860 285.1373 0026611 337.7006 022.3020 14.81485986176110 PO-63 1 29712U 07001D 08220.26151763 .00000322 00000-0 49097-4 0 6854 2 29712 097.8718 277.4822 0013394 212.2342 147.8057 14.80230259 85022 AO-16 1 20439U 90005D 08219.59596828 -.00000016 00000-0 92075-5 0 3871 2 20439 098.2336 197.0913 0011650 030.9150 329.2715 14.31799634968135 LO-19 1 20442U 90005G 08219.91440483 .00000011 00000-0 19336-4 0 03148 2 20442 098.2037 205.7746 0012455 027.7978 332.3877 14.32037910968333 AO-27 1 22825U 93061C 08219.60597773 .00000060 00000-0 40056-4 0 347 2 22825 098.3878 177.7464 0009338 110.5942 249.6238 14.29244485774976 IO-26 1 22826U 93061D 08219.65125299 -.00000035 00000-0 28218-5 0 07418 2 22826 098.3801 178.6767 0009741 105.3218 254.9036 14.29493114775077 PO-28 1 22829U 93061G 08219.47314070 .00000095 00000-0 52705-4 0 75 2 22829 098.3690 179.6012 0010771 080.7514 279.4891 14.30194674775319 GO-32 1 25397U 98043D 08219.80190546 -.00000135 00000-0 -41571-4 0 6656 2 25397 098.3614 252.4577 0002267 097.7180 262.4265 14.23146058523416 NO-44 1 26931U 01043C 08219.79972114 -.00000096 00000-0 -49956-5 0 09466 2 26931 067.0527 154.2721 0007359 266.0905 093.9362 14.29529480357645 SO-50 1 27607U 02058C 08219.64228090 .00000062 00000-0 31514-4 0 06711 2 27607 064.5583 260.4065 0086427 269.7437 089.3775 14.71372602302392 CO-55 1 27844U 03031E 08219.72597670 .00000010 00000-0 25015-4 0 03683 2 27844 098.7161 227.2913 0009673 337.2504 022.8230 14.20590516264613 CO-57 1 27848U 03031J 08219.51954303 .00000017 00000-0 28327-4 0 03185 2 27848 098.7167 226.1751 0009841 340.8528 019.2275 14.20399224264559 AO-51 1 28375U 04025K 08219.61234850 -.00000005 00000-0 11399-4 0 01675 2 28375 098.0689 241.3418 0084985 000.4495 359.6757 14.40614960215663 CO-56 1 28941U 06005C 08220.38515539 .00019158 26413-5 13942-3 0 2660 2 28941 098.1103 338.1915 0159725 214.3717 144.7254 15.58757865138019 CP3 1 31128U 07012M 08219.71071927 -.00000047 00000-0 00000 0 0 3994 2 31128 098.0342 281.0061 0103372 177.9327 182.2345 14.51965273 69264 CP4 1 31132U 07012Q 08219.77027615 .00000183 00000-0 50636-4 0 3805 2 31132 098.0387 283.4598 0086183 170.6088 189.6728 14.55134938 69304 NOAA-10 1 16969U 86073A 08219.76610966 -.00000120 00000-0 -30747-4 0 02371 2 16969 098.7208 241.6305 0012914 037.7572 322.4500 14.27364655138658 NOAA-11 1 19531U 88089A 08219.30616110 .00000190 00000-0 12130-3 0 02690 2 19531 098.7979 307.9331 0010781 286.9546 073.0479 14.14874704024997 NOAA-12 1 21263U 91032A 08219.94827656 .00000023 00000-0 28586-4 0 08005 2 21263 098.7684 221.8982 0012476 343.6598 016.4177 14.25541381895628 MET-3/5 1 21655U 91056A 08219.94063836 .00000051 00000-0 10000-3 0 05029 2 21655 082.5505 068.5242 0012124 247.4587 112.5253 13.17016333816260 MET-2/21 1 22782U 93055A 08219.68479757 -.00000019 00000-0 -30361-4 0 02189 2 22782 082.5436 071.5167 0023192 145.2466 215.0210 13.83629981754112 OKEAN-4 1 23317U 94066A 08219.74160542 .00000147 00000-0 15310-4 0 06612 2 23317 082.5377 267.8988 0021178 324.8070 035.1744 14.82627077745779 NOAA-14 1 23455U 94089A 08219.79707979 -.00000186 00000-0 -74351-4 0 02561 2 23455 098.9433 292.0631 0009375 007.3270 352.8022 14.13745623701504 SICH-1 1 23657U 95046A 08219.80027198 .00000107 00000-0 10637-4 0 04592 2 23657 082.5250 048.8299 0022898 317.0923 042.8457 14.81595695697714 NOAA-15 1 25338U 98030A 08219.57151617 .00000171 00000-0 91924-4 0 05741 2 25338 098.5567 210.1559 0009476 253.9395 106.0732 14.24719474531975 RESURS 1 25394U 98043A 08219.97479948 .00000004 00000-0 19521-4 0 09989 2 25394 098.3833 261.6113 0002500 055.4955 304.6460 14.24166622523679 FENGYUN1 1 25730U 99025A 08219.94819991 .00000175 00000-0 12811-3 0 05593 2 25730 098.7232 194.0143 0022181 028.1256 332.1107 14.07742693476108 OKEAN-0 1 25860U 99039A 08219.50246712 -.00000001 00000-0 70848-5 0 04391 2 25860 097.7530 207.8310 0001797 084.2277 275.9131 14.73531046486807 NOAA-16 1 26536U 00055A 08219.71335213 -.00000243 00000-0 -10624-3 0 00467 2 26536 099.1606 210.0049 0011534 084.0934 276.1514 14.12491585405907 NOAA-17 1 27453U 02032A 08219.92441354 .00000171 00000-0 92843-4 0 00428 2 27453 098.5305 283.0737 0011096 324.8115 035.2315 14.23993519318023 NOAA-18 1 28654U 05018A 08219.81886197 .00000387 00000-0 23906-3 0 05332 2 28654 098.8673 160.1300 0014561 167.0102 193.1448 14.11184142165619 HUBBLE 1 20580U 90037B 08219.76471762 .00000267 00000-0 78087-5 0 1941 2 20580 028.4697 353.3330 0003866 198.8395 161.2052 15.00397323802582 PO-34 1 25520U 98064B 08219.97814887 .00000241 00000-0 21212-5 0 00602 2 25520 028.4596 198.7335 0005468 121.5689 238.5439 15.17215276540887 ISS 1 25544U 98067A 08219.81347098 .00007326 00000-0 57264-4 0 00010 2 25544 051.6417 116.2666 0010257 040.2184 004.5083 15.72844703556500 CO-58 1 28895U 05043F 08219.70941827 .00000060 00000-0 22120-4 0 00901 2 28895 098.0924 112.5096 0016723 250.6202 109.3194 14.59687433147858 NCUBE2 1 28897U 05043H 08219.25678095 .00000069 00000-0 24114-4 0 06198 2 28897 098.0892 111.9931 0016105 254.2183 105.7234 14.59859278140077 FALCON 1 30776U 07006E 08219.39452734 .00000149 00000-0 13875-4 0 03786 2 30776 035.4332 208.9899 0000886 033.1793 326.8979 15.03028728077709 MAST 1 31126U 07012K 08219.22158777 .00000189 00000-0 53357-4 0 3913 2 31126 098.0359 281.6495 0095037 176.2534 183.9399 14.53439485 69289 CAPE1 1 31130U 07012P 08219.70494360 .00000174 00000-0 51033-4 0 03836 2 31130 098.0356 281.0070 0103030 177.8882 182.2762 14.51983329069050 CUTE1-7 1 32785U 08021C 08219.17097512 .00000055 00000-0 13897-4 0 01251 2 32785 097.9888 278.9620 0014653 338.8338 021.2264 14.81380835014806 COMPASS 1 32787U 08021E 08219.30245178 -.00000003 00000-0 64726-5 0 01130 2 32787 097.9865 279.0449 0015559 339.2937 020.7645 14.81442219014824 AAUSAT2 1 32788U 08021F 08219.16004805 .00000259 00000-0 39810-4 0 01143 2 32788 097.9871 278.9189 0014675 342.9097 017.1618 14.81553184014809 DO-64 1 32789U 08021G 08219.91131365 -.00000031 00000-0 29644-5 0 01301 2 32789 097.9897 279.6876 0015105 336.7911 023.2617 14.81442365014911 SEEDS 1 32791U 08021J 08219.24438952 .00000021 00000-0 96335-5 0 01121 2 32791 097.9885 279.0014 0015869 337.5003 022.5505 14.81298323014783 CANX-2 1 32797U 08021L 08218.60726649 .00001601 00000-0 20867-3 0 00588 2 32797 097.9941 278.4755 0015646 346.4586 013.6197 14.81907328013403 RS-30 1 32953U 08025A 08219.71614026 .00000010 00000-0 00000-0 0 00772 2 32953 082.5001 092.1723 0019106 141.4712 218.7735 12.42996797009324 /EX
participants (1)
-
Ray Hoad